Starlink 31975

operational
NORAD ID: 59886 Int'l Des: 2024-100 Owner: SPXS Country: US Constellation: starlink
LEOCIRCULAR

About Starlink 31975

Description loading...

Live Position

Loading 3D Globe...

Upcoming Passes

Altitude History

Altitude vs Time

uPlot chart will show altitude changes over time

Two-Line Element Set

1 59886U 24100B 25306.49430439 .00003219 00000-0 12647-3 0 9993
2 59886 43.0042 123.7592 0001628 276.4948 83.5718 15.27574160 81703
Epoch: Nov 2, 2025 • Age: 28 hours

Current Status

Altitude 485.3 km
Velocity 7.62 km/s
Sub-Earth Point -14.97°S, 177.2°E
Launch Date May 28, 2024
Age 1.4 years
Type internet

Technical Details

Classification Payload
Mass 730.00 kg
Dry Mass 700.00 kg
Total Mass 730.00 kg
Length 0.30 m
Diameter 4.10 m
Span 29.00 m
Shape Box + pan
Manufacturer SPXS
Bus Type Starlink V2M
Phase Status In Orbit
Owner/State SPXS/US

Large Constellations

Loading constellations...